(°C)
28°
29°
29°
29°
29°
29°
29°
(°C)
27°
28°
29°
29°
29°
29°
29°
SSV
SV
SV
VSV
V
V
V
(km/h)
10-13
12-15
13-17
12-18
12-19
12-20
12-21
(mm)
0
0
0
0
0
0
0
(%)
0
0
0
0
0
0
0

Elevația soarelui

/ 55.2°
sun-icon
UV 7
05:13
20:46
Primul pătrar (94°)
13:08
01:27

METAR pentru 44.1°N 15.3°E (LDZD)

Ora Condiții Temperatură/
Punctul de rouă
Vânt Vizibilitate Vremea Nori Presiune Schimbă Brut
VFR 28°C / 13°C variable 3kt >10km - Few Clouds 5000ft 1017 No Significant change LDZD 180830Z VRB03KT 9999 FEW050 28/13 Q1017 NOSIG
VFR 27°C / 12°C variable 3kt >10km - Few Clouds 5000ft 1017 No Significant change LDZD 180800Z VRB03KT 9999 FEW050 27/12 Q1017 NOSIG
VFR 27°C / 11°C variable 3kt >10km - Few Clouds 5000ft 1017 No Significant change LDZD 180730Z VRB03KT 9999 FEW050 27/11 Q1017 NOSIG
VFR 27°C / 12°C 150º variable 070º to 240º 3kt >10km - Few Clouds 5000ft 1017 No Significant change LDZD 180700Z 15003KT 070V240 9999 FEW050 27/12 Q1017 NOSIG
VFR 25°C / 12°C 140º variable 100º to 200º 5kt >10km - Few Clouds 5000ft 1017 No Significant change LDZD 180630Z 14005KT 100V200 9999 FEW050 25/12 Q1017 NOSIG
VFR 24°C / 14°C 140º variable 110º to 180º 5kt >10km - Few Clouds 5000ft 1017 No Significant change LDZD 180600Z 14005KT 110V180 9999 FEW050 24/14 Q1017 NOSIG
VFR 21°C / 15°C 130º variable 100º to 160º 4kt >10km - Few Clouds 7000ft 1017 No Significant change LDZD 180530Z 13004KT 100V160 9999 FEW070 21/15 Q1017 NOSIG
VFR 20°C / 15°C variable 2kt >10km - Few Clouds 7000ft 1017 No Significant change LDZD 180500Z VRB02KT 9999 FEW070 20/15 Q1017 NOSIG
VFR 18°C / 15°C 170º 3kt >10km - Few Clouds 7000ft 1017 No Significant change LDZD 180430Z 17003KT 9999 FEW070 18/15 Q1017 NOSIG
VFR 16°C / 15°C 100º 3kt >10km - Few Clouds 7000ft 1017 No Significant change LDZD 180400Z 10003KT 9999 FEW070 16/15 Q1017 NOSIG
VFR 16°C / 14°C 110º 5kt >10km - Few Clouds 7000ft 1017 No Significant change LDZD 180330Z 11005KT 9999 FEW070 16/14 Q1017 NOSIG
VFR 16°C / 14°C variable 1kt >10km - Clouds and Visibility OK 1017 No Significant change LDZD 180300Z VRB01KT CAVOK 16/14 Q1017 NOSIG
VFR 16°C / 14°C 100º 4kt >10km - Clouds and Visibility OK 1017 No Significant change LDZD 180230Z 10004KT CAVOK 16/14 Q1017 NOSIG
VFR 16°C / 14°C 190º 3kt >10km - Clouds and Visibility OK 1017 No Significant change LDZD 180200Z 19003KT CAVOK 16/14 Q1017 NOSIG
VFR 17°C / 15°C 130º 5kt >10km - Clouds and Visibility OK 1017 - LDZD 180130Z 13005KT CAVOK 17/15 Q1017
VFR 17°C / 15°C 120º 3kt >10km - Clouds and Visibility OK 1017 - LDZD 180100Z 12003KT CAVOK 17/15 Q1017
VFR 18°C / 16°C 70º 2kt >10km - Clouds and Visibility OK 1017 - LDZD 180030Z 07002KT CAVOK 18/16 Q1017
VFR 19°C / 17°C 80º 3kt >10km - Clouds and Visibility OK 1017 No Significant change LDZD 180000Z 08003KT CAVOK 19/17 Q1017 NOSIG
VFR 18°C / 15°C variable 0kt >10km - Clouds and Visibility OK 1017 No Significant change LDZD 172330Z 00000KT CAVOK 18/15 Q1017 NOSIG
VFR 18°C / 15°C variable 0kt >10km - Clouds and Visibility OK 1017 No Significant change LDZD 172300Z 00000KT CAVOK 18/15 Q1017 NOSIG
VFR 19°C / 16°C variable 3kt >10km - Clouds and Visibility OK 1017 No Significant change LDZD 172230Z VRB03KT CAVOK 19/16 Q1017 NOSIG
VFR 19°C / 15°C 190º variable 150º to 210º 3kt >10km - Clouds and Visibility OK 1017 No Significant change LDZD 172200Z 19003KT 150V210 CAVOK 19/15 Q1017 NOSIG
VFR 21°C / 16°C 100º variable 070º to 140º 4kt >10km - Clouds and Visibility OK 1017 No Significant change LDZD 172130Z 10004KT 070V140 CAVOK 21/16 Q1017 NOSIG
VFR 20°C / 16°C 100º 5kt >10km - Clouds and Visibility OK 1017 No Significant change LDZD 172100Z 10005KT CAVOK 20/16 Q1017 NOSIG

VFR

28°C / 13°C

[Mai mult]
Vânt variable 3kt
Vizibilitate >10km
Vremea -
Nori Few Clouds 5000ft
Presiune 1017
Schimbă No Significant change
Brut LDZD 180830Z VRB03KT 9999 FEW050 28/13 Q1017 NOSIG

VFR

27°C / 12°C

[Mai mult]
Vânt variable 3kt
Vizibilitate >10km
Vremea -
Nori Few Clouds 5000ft
Presiune 1017
Schimbă No Significant change
Brut LDZD 180800Z VRB03KT 9999 FEW050 27/12 Q1017 NOSIG

VFR

27°C / 11°C

[Mai mult]
Vânt variable 3kt
Vizibilitate >10km
Vremea -
Nori Few Clouds 5000ft
Presiune 1017
Schimbă No Significant change
Brut LDZD 180730Z VRB03KT 9999 FEW050 27/11 Q1017 NOSIG

VFR

27°C / 12°C

[Mai mult]
Vânt 150º variable 070º to 240º 3kt
Vizibilitate >10km
Vremea -
Nori Few Clouds 5000ft
Presiune 1017
Schimbă No Significant change
Brut LDZD 180700Z 15003KT 070V240 9999 FEW050 27/12 Q1017 NOSIG

VFR

25°C / 12°C

[Mai mult]
Vânt 140º variable 100º to 200º 5kt
Vizibilitate >10km
Vremea -
Nori Few Clouds 5000ft
Presiune 1017
Schimbă No Significant change
Brut LDZD 180630Z 14005KT 100V200 9999 FEW050 25/12 Q1017 NOSIG

VFR

24°C / 14°C

[Mai mult]
Vânt 140º variable 110º to 180º 5kt
Vizibilitate >10km
Vremea -
Nori Few Clouds 5000ft
Presiune 1017
Schimbă No Significant change
Brut LDZD 180600Z 14005KT 110V180 9999 FEW050 24/14 Q1017 NOSIG

VFR

21°C / 15°C

[Mai mult]
Vânt 130º variable 100º to 160º 4kt
Vizibilitate >10km
Vremea -
Nori Few Clouds 7000ft
Presiune 1017
Schimbă No Significant change
Brut LDZD 180530Z 13004KT 100V160 9999 FEW070 21/15 Q1017 NOSIG

VFR

20°C / 15°C

[Mai mult]
Vânt variable 2kt
Vizibilitate >10km
Vremea -
Nori Few Clouds 7000ft
Presiune 1017
Schimbă No Significant change
Brut LDZD 180500Z VRB02KT 9999 FEW070 20/15 Q1017 NOSIG

VFR

18°C / 15°C

[Mai mult]
Vânt 170º 3kt
Vizibilitate >10km
Vremea -
Nori Few Clouds 7000ft
Presiune 1017
Schimbă No Significant change
Brut LDZD 180430Z 17003KT 9999 FEW070 18/15 Q1017 NOSIG

VFR

16°C / 15°C

[Mai mult]
Vânt 100º 3kt
Vizibilitate >10km
Vremea -
Nori Few Clouds 7000ft
Presiune 1017
Schimbă No Significant change
Brut LDZD 180400Z 10003KT 9999 FEW070 16/15 Q1017 NOSIG

VFR

16°C / 14°C

[Mai mult]
Vânt 110º 5kt
Vizibilitate >10km
Vremea -
Nori Few Clouds 7000ft
Presiune 1017
Schimbă No Significant change
Brut LDZD 180330Z 11005KT 9999 FEW070 16/14 Q1017 NOSIG

VFR

16°C / 14°C

[Mai mult]
Vânt variable 1kt
Vizibilitate >10km
Vremea -
Nori Clouds and Visibility OK
Presiune 1017
Schimbă No Significant change
Brut LDZD 180300Z VRB01KT CAVOK 16/14 Q1017 NOSIG

VFR

16°C / 14°C

[Mai mult]
Vânt 100º 4kt
Vizibilitate >10km
Vremea -
Nori Clouds and Visibility OK
Presiune 1017
Schimbă No Significant change
Brut LDZD 180230Z 10004KT CAVOK 16/14 Q1017 NOSIG

VFR

16°C / 14°C

[Mai mult]
Vânt 190º 3kt
Vizibilitate >10km
Vremea -
Nori Clouds and Visibility OK
Presiune 1017
Schimbă No Significant change
Brut LDZD 180200Z 19003KT CAVOK 16/14 Q1017 NOSIG

VFR

17°C / 15°C

[Mai mult]
Vânt 130º 5kt
Vizibilitate >10km
Vremea -
Nori Clouds and Visibility OK
Presiune 1017
Schimbă -
Brut LDZD 180130Z 13005KT CAVOK 17/15 Q1017

VFR

17°C / 15°C

[Mai mult]
Vânt 120º 3kt
Vizibilitate >10km
Vremea -
Nori Clouds and Visibility OK
Presiune 1017
Schimbă -
Brut LDZD 180100Z 12003KT CAVOK 17/15 Q1017

VFR

18°C / 16°C

[Mai mult]
Vânt 70º 2kt
Vizibilitate >10km
Vremea -
Nori Clouds and Visibility OK
Presiune 1017
Schimbă -
Brut LDZD 180030Z 07002KT CAVOK 18/16 Q1017

VFR

19°C / 17°C

[Mai mult]
Vânt 80º 3kt
Vizibilitate >10km
Vremea -
Nori Clouds and Visibility OK
Presiune 1017
Schimbă No Significant change
Brut LDZD 180000Z 08003KT CAVOK 19/17 Q1017 NOSIG

VFR

18°C / 15°C

[Mai mult]
Vânt variable 0kt
Vizibilitate >10km
Vremea -
Nori Clouds and Visibility OK
Presiune 1017
Schimbă No Significant change
Brut LDZD 172330Z 00000KT CAVOK 18/15 Q1017 NOSIG

VFR

18°C / 15°C

[Mai mult]
Vânt variable 0kt
Vizibilitate >10km
Vremea -
Nori Clouds and Visibility OK
Presiune 1017
Schimbă No Significant change
Brut LDZD 172300Z 00000KT CAVOK 18/15 Q1017 NOSIG

VFR

19°C / 16°C

[Mai mult]
Vânt variable 3kt
Vizibilitate >10km
Vremea -
Nori Clouds and Visibility OK
Presiune 1017
Schimbă No Significant change
Brut LDZD 172230Z VRB03KT CAVOK 19/16 Q1017 NOSIG

VFR

19°C / 15°C

[Mai mult]
Vânt 190º variable 150º to 210º 3kt
Vizibilitate >10km
Vremea -
Nori Clouds and Visibility OK
Presiune 1017
Schimbă No Significant change
Brut LDZD 172200Z 19003KT 150V210 CAVOK 19/15 Q1017 NOSIG

VFR

21°C / 16°C

[Mai mult]
Vânt 100º variable 070º to 140º 4kt
Vizibilitate >10km
Vremea -
Nori Clouds and Visibility OK
Presiune 1017
Schimbă No Significant change
Brut LDZD 172130Z 10004KT 070V140 CAVOK 21/16 Q1017 NOSIG

VFR

20°C / 16°C

[Mai mult]
Vânt 100º 5kt
Vizibilitate >10km
Vremea -
Nori Clouds and Visibility OK
Presiune 1017
Schimbă No Significant change
Brut LDZD 172100Z 10005KT CAVOK 20/16 Q1017 NOSIG

TAF pentru 44.1°N 15.3°E (LDZD)

From till


Maximum Temperature 30ºC on . Minimum Temperature 17ºC on .
From till Wind variable 2kt. Visibility 10km or more. Nil Significant Cloud.
Becoming from till Wind 310º 9kt. Visibility 10km or more. Nil Significant Cloud.
Becoming from till Wind 310º 5kt. Visibility 10km or more. Nil Significant Cloud.

Brut: TAF LDZD 180525Z 1806/1906 VRB02KT CAVOK TX30/1814Z TN17/1901Z BECMG 1809/1811 31009KT BECMG 1816/1818 31005KT

rainNOW

0.0 mm
0.0 mm
0.0 mm
0.0 mm
0.0 mm
0.0 mm
0.0 mm
0.0 mm
0.0 mm
0.0 mm
0.0 mm
0.0 mm

Imagini satelitare și ploaie pentru 44.1°N 15.3°E

Markerul cu locaţia este poziţionat pe 44.1°N 15.3°E. [Mai mult]

Imaginea satelitară în timp real combină lumina vizibilă din timpul zilei cu radiația cu infraroșu din timpul nopții. Pe timp de noapte, imaginea nu este întunecată, deoarece radiația cu infraroșu poate detecta diferențele de temperatură. Din păcate, norii joși și ceața sunt greu de recunoscut față de temperatura de la sol, din această cauză putând fi invizibili pe timp de noapte. Imaginile satelitare Meteosat pentru Europa sunt actualizate în timp real din 5 în 5 minute. Imaginile GOES-16/GOES-17 (America de Nord și de Sud) și Himawari (Asia) sunt actualizate din 10 în 10 minute.

Cantitatea de precipitaţii este estimată cu ajutorul radarelor şi a sateliţilor. Estimările satelitare privind cantitatea de precipitaţii sunt mai puţin exacte noaptea decât în timpul zilei. Crucile portocalii marchează locurile unde fulger a fost detectat (over Europa).

Toate drepturile rezervate 2021 EUMETSAT / meteoblue. Datele despre fulgere furnizate de către nowcast.

Radar și nowcast de precipitații pentru 44.1°N 15.3°E

Markerul de locație este plasat în 44.1°N 15.3°E. Această animație arată radarul de precipitații pentru ultima oră, precum și o 1h prognoză. Bruma și fulguiala pot fi invizibile pe radar. Intensitatea precipitațiilor este reprezentată prin culori, de la albastru deschis la violet închis.